Showing default

SPAINSAT NG1, 62852

Orbit data source: Space-Track

SPAINSAT NG1, 62852 is a payload satellite owned by Hisdesat (ES) in GEO that was launched on Thu, 30 Jan 2025 UTC via an FALCON 9 launch vehicle from the Air Force Eastern Test Range (AFETR). Payload-class satellites include a variety of spacecraft equipped with specific instruments for various scientific and technological missions. These include communications satellites like Starlink; space stations such as the ISS; scientific satellites like the Hubble; Earth observation satellites from companies like Planet Labs, Umbra, and HawkEye 360; GPS; miniature CubeSats for education and research; and military/defense satellites.

Not visible in the next 10 days
Identifier
62852, 2025-021A
Orbit
GEO
Country
Flag of ESES / SPN
Related business
Manufacturer
ADST/ADSUK
Mission
Operational Defense Communications
Bus & Motor
EUROSTAR NEO, PPS-5000
Mass
6,100 kg wet, ~5,500 kg dry
Launch date (UTC)
2025-01-30 (10 months ago)
Launch vehicle
FALCON 9
Launch site
Air Force Eastern Test Range (AFETR)
Object type
Payload
Rocket body
Debris
Shape & HBR
Box + 2 Pan, 21.4 m
Radar Cross Section
50.755 m², Large (>1 m²)

Expand to show TLE details & history
Last TLE update: 3 days ago

TLE from 3 days ago
0 SPAINSAT NG1
1 62852U 25021A   25338.57972843  .00000164  00000-0  00000+0 0  9999
2 62852   0.2697  87.1864 0004030 208.1619  26.2690  1.00324380  2038
Epoch: 2025-12-04T13:54Z
TLE epoch observation values (Epoch: 2025-12-04T13:54:48.536Z)
Latitude
-0.22046°
Longitude
39.28079°
Altitude
35,756.183 km
Speed
3.076 km/s
True Right ascension
21h 26m 28s
True Declination
0° 13' 13"
Sunlit
Object was in daylight at epoch
Visualization orbit readout
Latitude
Unknown
Longitude
Unknown
Altitude
Unknown
Speed
Unknown
Apparent Right ascension
Unknown
Apparent Declination
Unknown
Sunlit
N/A
Visualization observer readout
Local Sidereal Time
03:09:01
Azimuth
Unknown
Elevation
Unknown
Doppler factor
Unknown
Orbital elements
Apogee altitude
35,789.915 km
Perigee altitude
35,755.941 km
Semi-major axis
42,151.065 km
Eccentricity
0.0004
Inclination
0.2697°
RAAN
87.1864°
Arg. of periapsis
208.1619°
True anomaly
26.28945°
Mean anomaly
26.269°
Eccentric anomaly
26.27922°
Mean motion
0.2508 °/min
Orbital period
1,435.4 mins
BSTAR
0
Loading maneuver chart data...
Computing Atmospheric mass density...
Loading historical data...
Loading historical data...
Loading historical data...
Loading historical data...
Loading historical data...
Loading historical data...
Loading historical data...
Other satellites on launch #21 in the year 2025 (2025-01-30 UTC)

Documentation

Showing up to 5 results
|